Location: Windsor
(43.2292°N, 89.3015°W)
Time: 16:36:45
(UTC+00:00)

MOZHAYETS 4 - Pass Details

Date: 04 July 2022
Orbit: 660 x 678 km, 98.2° (Epoch: 19 August)

Event Time Altitude Azimuth Distance (km) Brightness Sun altitude
Exits shadow 09:11:30 15° 216° (SW) 1,816 9.3 -10.8°
Maximum altitude 09:14:25 26° 265° (W) 1,319 8.8 -10.5°
Drops below altitude 10° 09:18:17 10° 322° (NW) 2,110 10.4 -10.0°
Sets 09:20:51 0° 335° (NNW) 3,026 11.4 -9.6°
